Welcome to the New NWS' Forecast!
Most changes are behind the scenes, but click here for differences you might notice.

Regional Weather Roundup (RWR)

Issued by National Weather Service (NWS)

                            
668 
ASUS46 KSEW 160710
RWRWA 

WASHINGTON REGIONAL WEATHER ROUNDUP
NATIONAL WEATHER SERVICE SEATTLE WA
1200 AM PDT MON JUL 16 2018

NOTE:"FAIR" INDICATES FEW OR NO CLOUDS BELOW 12,000 FEET WITH NO 
SIGNIFICANT WEATHER AND/OR OBSTRUCTIONS TO VISIBILITY.

WAZ507-509-555>559-160800-
SEATTLE, TACOMA, EVERETT, AND VICINITY
  
CITY           SKY/WX    TMP DP  RH WIND       PRES   REMARKS
EVERETT        CLEAR     66  48  52 NW3       30.00S                  
BOEING FIELD   CLEAR     75  48  38 CALM      29.97R                  
RENTON         CLEAR     74  57  55 NW3       29.97R                  
SEATAC AIRPORT CLEAR     76  46  34 N8        29.99R                  
JBLM-MCCHORD   CLEAR     65  56  71 CALM      29.99R                  
PUYALLUP       FAIR      64  57  77 CALM      30.00R                  
BREMERTON      CLEAR     62  45  53 CALM      29.99R                  
JBLM-FT LEWIS  CLEAR     73  52  47 CALM      29.98R                  
TACOMA NARROWS CLEAR     69  47  45 CALM      29.98R                  
$$
 
WAZ001-503-506-510-514-515-160800-
NORTH INTERIOR
  
CITY           SKY/WX    TMP DP  RH WIND       PRES   REMARKS
BELLINGHAM     CLEAR     61  52  72 CALM      29.97S                  
FRIDAY HARBOR  CLEAR     56  48  74 CALM      29.99R                  
EASTSOUND      CLEAR     61  54  77 S6        29.96S                  
PORT ANGELES   CLEAR     61  50  67 CALM      29.99S                  
EDIZ HOOK      FAIR      57  50  77 W10       29.98S                  
PORT TOWNSEND  FAIR      57  50  77 CALM      29.98S                  
NAS WHIDBEY    CLEAR     61  49  64 E3        30.02S                  
ARLINGTON      CLEAR     65  50  58 CALM      29.99R                  
BURLINGTON     CLEAR     59  54  82 CALM      29.98S                  
$$
 
WAZ020-022-039-040-504-511-512-160800-
SOUTHWEST INTERIOR
  
CITY           SKY/WX    TMP DP  RH WIND       PRES   REMARKS
SHELTON        CLEAR     69  55  60 NW3       29.97R                  
OLYMPIA        CLEAR     65  49  56 CALM      29.98R                  
CHEHALIS       FAIR      66  57  72 CALM      29.98S                  
KELSO          CLEAR     68  57  68 NW3       29.99                   
VANCOUVER      PTCLDY    77  53  43 NW8       29.93S                  
SCAPPOOSE, OR  CLEAR     75  50  41 N7        29.94R                  
PORTLAND, OR   PTCLDY    79  52  38 W6        29.94S                  
$$
 
WAZ021-516-517-160800-
WASHINGTON COAST
  
CITY           SKY/WX    TMP DP  RH WIND       PRES   REMARKS
FORKS          CLEAR     55  50  83 CALM      30.00S                  
HOQUIAM        CLEAR     60  56  86 SW7       30.01R                  
ASTORIA, OR    CLEAR     57  55  93 SW6       30.02S                  
$$
 
WAZ019-023-024-040-567>569-160800-
CASCADE MOUNTAINS AND COLUMBIA GORGE
  
CITY           SKY/WX    TMP DP  RH WIND       PRES   REMARKS
STAMPEDE PASS  NOT AVBL                                               
TROUTDALE, OR  CLEAR     78  53  41 VRB3      29.94R                  
HOOD RIVER, OR SUNNY     73  50  43 CALM      29.94R                  
THE DALLES, OR CLEAR     78  51  38 CALM      29.89S                  
$$

WAZ026-027-041>044-520-521-160800-
EAST SLOPES
  
CITY           SKY/WX    TMP DP  RH WIND       PRES   REMARKS
OMAK           CLEAR     69  47  45 NW9       29.95R                  
WENATCHEE      CLEAR     75  41  29 N3        29.94S                  
ELLENSBURG     CLEAR     70  51  51 W3        29.99R                  
YAKIMA         CLEAR     68  48  48 W8        29.95S                  
SUNNYSIDE ARPT SUNNY     65  51  60 CALM      29.92R                  
YAKIMA TC        N/A     73  34  24 CALM      29.95R                  
$$

WAZ028-034-035-160800-
COLUMBIA BASIN
  
CITY           SKY/WX    TMP DP  RH WIND       PRES   REMARKS
EPHRATA        CLEAR     69  32  25 CALM      29.93S                  
MOSES LAKE     CLEAR     71  42  35 N3        29.94R                  
PASCO          CLEAR     63  58  83 N3        29.89S                  
RICHLAND ARPT  SUNNY     70  50  49 CALM      29.89R                  
HERMISTON, OR  PTCLDY    67  42  40 CALM      29.90R                  
$$

WAZ036>038-160800-
NORTHEAST WASHINGTON
  
CITY           SKY/WX    TMP DP  RH WIND       PRES   REMARKS
SPOKANE GEIGER PTCLDY    70  38  31 SW3       30.01S                  
SPOKANE FELTS  CLEAR     69  38  32 NE5       30.00S                  
FAIRCHILD AFB  NOT AVBL                                               
COEURDALENE,ID CLEAR     61  41  47 NE6       30.03R                  
DEER PARK      CLEAR     55  41  59 CALM      30.01S                  
$$

WAZ029>033-160800-
SOUTHEAST WASHINGTON
  
CITY           SKY/WX    TMP DP  RH WIND       PRES   REMARKS
PULLMAN        PTCLDY    58  45  62 CALM      30.04S                  
LEWISTON, ID   PTCLDY    74  38  27 CALM      29.96S                  
WALLA WALLA    PTCLDY    73  39  29 E8        29.93S                  
PENDLETON, OR  PTCLDY    71  35  26 SE9       29.95S                  
$$